Location: Wald
(31.7579°N, 86.6655°W)
Time: 20:42:24
(UTC+00:00)

COSMOS 2406 - Pass Details

Date: 14 July 2020
Orbit: 844 x 863 km, 71.0° (Epoch: 13 August)

Event Time Altitude Azimuth Distance (km) Brightness Sun altitude
Exits shadow 07:37:51 41° 320° (NW) 1,229 4.1 -31.0°
Drops below altitude 10° 07:42:24 10° 6° (N) 2,504 6.4 -30.5°
Sets 07:44:59 0° 13° (NNE) 3,442 7.4 -30.3°
